Location: Burzi?i
(45.0869°N, 16.0577°E)
Time: 10:08:26
(UTC+00:00)

USA 305 - Pass Details

Date: 29 October 2020
Orbit: 569 x 577 km, 54.0° (Epoch: 22 November)

Event Time Altitude Azimuth Distance (km) Brightness Sun altitude
Rises 17:51:16 0° 303° (WNW) 2,786 7.4 -22.3°
Reaches altitude 10° 17:53:33 10° 301° (WNW) 1,883 6.4 -22.7°
Maximum altitude 17:57:47 66° 220° (SW) 627 3.1 -23.5°
Enters shadow 17:58:08 63° 189° (S) 642 3.0 -23.5°
